KC7NGC-B Weather Reports


time (UTC)temp
F
wind
direction
speed
knots
gust
knots
rain 1hr
in
rain 24hr
in
rain mn
in
humidity
%
barometer
mb
20260831181622 70 52 4.3 7.0 0.00 0.00 0.00 1 1016.0
20260831180639 69 25 2.6 3.5 0.00 0.00 0.00 1 1016.1
20260831175635 69 12 4.3 6.1 0.00 0.00 0.00 1 1016.3
20260831174632 68 24 4.3 5.2 0.00 0.00 0.00 1 1016.3
20260831173629 68 43 3.5 5.2 0.00 0.00 0.00 1 1016.3
20260831172645 67 340 3.5 4.3 0.00 0.00 0.00 1 1016.3
20260831171622 67 340 1.7 2.6 0.00 0.00 0.00 1 1016.4
20260831170618 67 51 0.9 1.7 0.00 0.00 0.00 1 1016.8
20260831165635 65 0.0 0.9 0.00 0.00 0.00 1 1016.5
20260831164631 65 36 2.6 3.5 0.00 0.00 0.00 1 1016.9
20260831163628 65 86 0.9 2.6 0.00 0.00 0.00 1 1016.8
20260831162625 64 22 1.7 3.5 0.00 0.00 0.00 1 1016.9
20260831161621 63 66 2.6 3.5 0.00 0.00 0.00 1 1016.9
20260831160618 63 40 2.6 3.5 0.00 0.00 0.00 1 1017.0
20260831155634 63 35 3.5 5.2 0.00 0.00 0.00 1 1017.0
20260831154633 62 338 1.7 4.3 0.00 0.00 0.00 1 1017.0
20260831153628 62 16 1.7 2.6 0.00 0.00 0.00 1 1017.1
20260831152627 60 328 0.9 1.7 0.00 0.00 0.00 1 1017.0
20260831151620 60 322 1.7 2.6 0.00 0.00 0.00 1 1017.0
20260831150617 60 335 1.7 2.6 0.00 0.00 0.00 1 1016.9
20260831145654 59 340 2.6 3.5 0.00 0.00 0.00 1 1017.0
20260831144631 58 353 2.6 3.5 0.00 0.00 0.00 1 1016.9
20260831143649 58 337 2.6 3.5 0.00 0.00 0.00 1 1016.7
20260831142625 59 320 0.0 1.7 0.00 0.00 0.00 1 1016.6
20260831141621 57 0.0 1.7 0.00 0.00 0.00 1 1016.5
20260831140621 56 279 0.9 1.7 0.00 0.00 0.00 1 1016.6
20260831135635 55 264 0.9 2.6 0.00 0.00 0.00 1 1016.5
20260831134631 55 0.0 0.9 0.00 0.00 0.00 1 1016.6
20260831133629 54 251 3.5 4.3 0.00 0.00 0.00 1 1016.6
20260831132645 53 207 1.7 3.5 0.00 0.00 0.00 1 1016.6
20260831131621 53 221 0.9 1.7 0.00 0.00 0.00 1 1016.5
20260831130618 54 180 1.7 2.6 0.00 0.00 0.00 1 1016.3
20260831125636 54 97 0.9 1.7 0.00 0.00 0.00 1 1016.3
20260831124631 55 295 0.9 2.6 0.00 0.00 0.00 1 1016.4
20260831123628 55 0.0 0.9 0.00 0.00 0.00 1 1016.4
20260831122625 55 276 0.0 0.9 0.00 0.00 0.00 1 1016.3
20260831121641 54 250 0.9 1.7 0.00 0.00 0.00 1 1016.3
20260831120619 55 277 1.7 1.7 0.00 0.00 0.00 1 1016.3
20260831115634 55 218 1.7 2.6 0.00 0.00 0.00 1 1016.3
20260831114652 55 252 0.9 1.7 0.00 0.00 0.00 1 1016.2
20260831113629 56 213 1.7 2.6 0.00 0.00 0.00 1 1016.4
20260831112625 56 238 1.7 1.7 0.00 0.00 0.00 1 1016.4
20260831111622 55 227 0.9 1.7 0.00 0.00 0.00 1 1016.3
20260831110619 55 270 0.9 0.9 0.00 0.00 0.00 1 1016.4
20260831105620 56 246 0.9 1.7 0.00 0.00 0.00 1 1016.4
20260831104617 56 238 0.9 1.7 0.00 0.00 0.00 1 1016.2
20260831103633 56 240 1.7 1.7 0.00 0.00 0.00 1 1016.3
20260831102630 57 217 2.6 2.6 0.00 0.00 0.00 1 1016.3
20260831101627 57 261 1.7 1.7 0.00 0.00 0.00 1 1016.2
20260831100623 56 233 1.7 1.7 0.00 0.00 0.00 1 1016.3
20260831095620 57 226 0.9 1.7 0.00 0.00 0.00 1 1016.6
20260831094656 57 290 0.9 1.7 0.00 0.00 0.00 1 1016.6
20260831093633 57 276 0.9 1.7 0.00 0.00 0.00 1 1016.7
20260831092629 57 283 0.0 0.9 0.00 0.00 0.00 1 1016.8
20260831091626 57 265 0.9 1.7 0.00 0.00 0.00 1 1016.7
20260831090622 58 282 0.9 1.7 0.00 0.00 0.00 1 1016.7
20260831085620 58 268 0.9 1.7 0.00 0.00 0.00 1 1016.8
20260831084636 58 0.0 0.9 0.00 0.00 0.00 1 1016.9
20260831083633 59 265 0.9 1.7 0.00 0.00 0.00 1 1016.9
20260831082630 59 264 0.9 1.7 0.00 0.00 0.00 1 1016.7
20260831081646 59 233 0.0 0.9 0.00 0.00 0.00 1 1016.9
20260831080623 60 210 0.0 0.9 0.00 0.00 0.00 1 1016.8
20260831075619 61 267 0.9 0.9 0.00 0.00 0.00 1 1016.8
20260831074616 60 274 0.9 1.7 0.00 0.00 0.00 1 1016.8
20260831073633 61 263 0.9 1.7 0.00 0.00 0.00 1 1016.9
20260831072629 60 270 0.9 1.7 0.00 0.00 0.00 1 1016.8
20260831071626 60 217 0.9 1.7 0.00 0.00 0.00 1 1016.9
20260831070702 60 222 1.7 1.7 0.00 0.00 0.00 1 1016.6
20260831065621 61 249 1.7 1.7 0.00 0.00 0.00 1 1016.8
20260831064636 61 245 1.7 1.7 0.00 0.00 0.00 1 1016.9
20260831063632 62 227 1.7 1.7 0.00 0.00 0.00 1 1017.0
20260831062629 62 224 0.0 1.7 0.00 0.00 0.00 1 1016.9
20260831061626 62 0.0 0.0 0.00 0.00 0.00 1 1016.9
20260831060622 63 243 1.7 1.7 0.00 0.00 0.00 1 1017.0
20260831055639 63 238 1.7 1.7 0.00 0.00 0.00 1 1016.9
20260831054615 62 249 1.7 1.7 0.00 0.00 0.00 1 1016.9
20260831053632 63 225 0.9 1.7 0.00 0.00 0.00 1 1017.0
20260831052629 63 234 1.7 1.7 0.00 0.00 0.00 1 1017.0
20260831051625 64 239 1.7 1.7 0.00 0.00 0.00 1 1017.1
20260831050622 65 272 0.0 0.9 0.00 0.00 0.00 1 1017.0
20260831045619 65 278 0.9 1.7 0.00 0.00 0.00 1 1017.0
20260831044636 65 261 0.9 1.7 0.00 0.00 0.00 1 1017.2
20260831043633 65 261 0.9 1.7 0.00 0.00 0.00 1 1017.0
20260831042629 65 252 1.7 1.7 0.00 0.00 0.00 1 1017.0
20260831041626 66 234 1.7 1.7 0.00 0.00 0.00 1 1017.1
20260831040623 66 230 0.9 1.7 0.00 0.00 0.00 1 1017.1
20260831035619 67 0.0 0.9 0.00 0.00 0.00 1 1017.1
20260831034616 67 0.0 0.0 0.00 0.00 0.00 1 1017.1
20260831033633 69 0.0 0.0 0.00 0.00 0.00 1 1017.1
20260831032630 69 162 1.7 1.7 0.00 0.00 0.00 1 1016.9
20260831031626 70 174 1.7 1.7 0.00 0.00 0.00 1 1017.0
20260831030623 70 172 0.9 1.7 0.00 0.00 0.00 1 1016.8
20260831025620 71 0.0 0.0 0.00 0.00 0.00 1 1016.8
20260831024616 71 0.0 0.9 0.00 0.00 0.00 1 1016.6
20260831023634 72 110 0.9 1.7 0.00 0.00 0.00 1 1016.6
20260831022630 73 155 0.9 1.7 0.00 0.00 0.00 1 1016.5
20260831021630 74 148 0.0 1.7 0.00 0.00 0.00 1 1016.6
20260831020624 75 61 0.9 2.6 0.00 0.00 0.00 1 1016.6
20260831015621 76 6 1.7 1.7 0.00 0.00 0.00 1 1016.4
20260831014617 76 46 1.7 2.6 0.00 0.00 0.00 1 1016.5
20260831013634 76 71 2.6 4.3 0.00 0.00 0.00 1 1016.5
20260831012651 79 218 0.9 1.7 0.00 0.00 0.00 1 1016.4
20260831011648 77 325 2.6 2.6 0.00 0.00 0.00 1 1016.5
20260831010625 77 1 4.3 5.2 0.00 0.00 0.00 1 1016.5
20260831005621 79 0.0 0.0 0.00 0.00 0.00 1 1016.6
20260831004618 78 350 0.0 1.7 0.00 0.00 0.00 1 1016.6
20260831003635 78 172 1.7 1.7 0.00 0.00 0.00 1 1016.7
20260831002631 79 265 0.0 1.7 0.00 0.00 0.00 1 1016.8
20260831001648 78 219 0.9 2.6 0.00 0.00 0.00 1 1016.9
20260831000625 77 225 1.7 2.6 0.00 0.00 0.00 1 1016.8
20260830235723 76 180 0.9 2.6 0.00 0.00 0.00 1 1016.9
20260830234618 78 9 0.9 1.7 0.00 0.00 0.00 1 1017.0
20260830233634 77 7 0.9 2.6 0.00 0.00 0.00 1 1017.3
20260830232632 77 227 1.7 2.6 0.00 0.00 0.00 1 1017.2
20260830231628 75 0.0 0.9 0.00 0.00 0.00 1 1017.3
20260830230705 75 43 2.6 3.5 0.00 0.00 0.00 1 1017.3
20260830225641 76 272 3.5 4.3 0.00 0.00 0.00 1 1017.4
20260830224618 75 342 0.9 1.7 0.00 0.00 0.00 1 1017.6
20260830223635 75 185 3.5 3.5 0.00 0.00 0.00 1 1017.7
20260830222631 74 6 0.9 1.7 0.00 0.00 0.00 1 1018.1
20260830221628 74 345 0.9 1.7 0.00 0.00 0.00 1 1018.0
20260830220625 73 68 0.0 0.9 0.00 0.00 0.00 1 1018.4
20260830215622 73 110 2.6 3.5 0.00 0.00 0.00 1 1018.5
20260830214618 74 215 4.3 6.1 0.00 0.00 0.00 1 1018.7
20260830213635 73 273 3.5 7.0 0.00 0.00 0.00 1 1018.7
20260830212632 73 242 2.6 5.2 0.00 0.00 0.00 1 1018.8
20260830211629 72 275 2.6 4.3 0.00 0.00 0.00 1 1018.9
20260830210625 72 223 2.6 4.3 0.00 0.00 0.00 1 1018.9
20260830205622 71 213 7.0 7.8 0.00 0.00 0.00 1 1019.0
20260830204618 71 217 6.1 8.7 0.00 0.00 0.00 1 1018.8
20260830203635 71 232 1.7 5.2 0.00 0.00 0.00 1 1019.2
20260830202632 70 261 4.3 6.1 0.00 0.00 0.00 1 1019.2
20260830201628 70 295 1.7 5.2 0.00 0.00 0.00 1 1019.3
20260830200337 70 183 6.1 9.6 0.00 0.00 0.00 1 1019.4
20260830195354 69 214 3.5 5.2 0.00 0.00 0.00 1 1019.4
20260830194330 68 205 3.5 6.1 0.00 0.00 0.00 1 1019.7
20260830193348 67 213 5.2 7.0 0.00 0.00 0.00 1 1019.9
20260830192324 68 184 5.2 7.8 0.00 0.00 0.00 1 1019.8
20260830191321 67 194 6.1 7.8 0.00 0.00 0.00 1 1019.9
20260830190317 67 198 6.1 7.8 0.00 0.00 0.00 1 1019.8
20260830185354 67 209 4.3 7.0 0.00 0.00 0.00 1 1019.7
20260830184351 66 194 4.3 7.8 0.00 0.00 0.00 1 1020.1
20260830183327 65 208 4.3 7.0 0.00 0.00 0.00 1 1020.1
20260830182323 65 205 6.1 12.2 0.00 0.00 0.00 1 1020.0